TimeCAT,TemperatureF,Dew PointF,Humidity,Sea Level PressureIn,VisibilityMPH,Wind Direction,Wind SpeedMPH,Gust SpeedMPH,PrecipitationIn,Events,Conditions,WindDirDegrees,DateUTC
12:00 AM,71.6,66.2,83,29.95,6.2,South,13.8,-,N/A,,Mostly Cloudy,190,2012-11-24 22:00:00
2:00 AM,69.8,66.2,88,29.95,-9999.0,South,4.6,-,N/A,,Clear,190,2012-11-25 00:00:00
3:00 AM,69.8,66.2,88,29.92,-9999.0,NNE,3.5,-,N/A,,Clear,30,2012-11-25 01:00:00
5:00 AM,69.8,66.2,88,30.01,-9999.0,South,4.6,-,N/A,,Clear,180,2012-11-25 03:00:00
6:00 AM,69.8,66.2,88,30.01,6.2,SE,3.5,-,N/A,,Mostly Cloudy,140,2012-11-25 04:00:00
7:00 AM,71.6,66.2,83,30.04,-9999.0,SSE,6.9,-,N/A,,Clear,160,2012-11-25 05:00:00
8:00 AM,73.4,64.4,73,30.04,6.2,SE,10.4,-,N/A,,Mostly Cloudy,140,2012-11-25 06:00:00
9:00 AM,75.2,64.4,69,30.06,6.2,ESE,12.7,-,N/A,,Mostly Cloudy,120,2012-11-25 07:00:00
10:00 AM,77.0,62.6,61,30.06,6.2,East,16.1,-,N/A,,Mostly Cloudy,80,2012-11-25 08:00:00
11:00 AM,78.8,64.4,61,30.06,6.2,East,15.0,-,N/A,,Scattered Clouds,100,2012-11-25 09:00:00
12:00 PM,77.0,64.4,65,30.04,6.2,East,12.7,-,N/A,,Scattered Clouds,90,2012-11-25 10:00:00
1:00 PM,80.6,66.2,61,30.04,6.2,ENE,9.2,-,N/A,,Scattered Clouds,60,2012-11-25 11:00:00
2:00 PM,82.4,66.2,58,30.01,6.2,East,5.8,-,N/A,,Partly Cloudy,90,2012-11-25 12:00:00
3:00 PM,84.2,64.4,51,29.98,6.2,East,9.2,-,N/A,,Scattered Clouds,90,2012-11-25 13:00:00
4:00 PM,86.0,60.8,43,29.95,6.2,SE,13.8,-,N/A,,Scattered Clouds,130,2012-11-25 14:00:00
5:00 PM,87.8,60.8,40,29.95,6.2,ESE,13.8,-,N/A,,Scattered Clouds,120,2012-11-25 15:00:00
6:00 PM,86.0,60.8,43,29.95,6.2,ENE,13.8,-,N/A,,Partly Cloudy,70,2012-11-25 16:00:00
7:00 PM,82.4,60.8,48,30.01,6.2,East,10.4,-,N/A,,Scattered Clouds,90,2012-11-25 17:00:00
8:00 PM,80.6,60.8,51,30.04,6.2,NE,8.1,-,N/A,,Scattered Clouds,50,2012-11-25 18:00:00
9:00 PM,78.8,64.4,61,30.06,6.2,NNW,3.5,-,N/A,,Scattered Clouds,330,2012-11-25 19:00:00